Year,Month,Day,Hour,Minute,Value (Times are PST for temperature in C)
2019,08,15,00,00,17.20
2019,08,15,00,01,17.20
2019,08,15,00,02,17.20
2019,08,15,00,03,17.10
2019,08,15,00,04,17.10
2019,08,15,00,05,17.10
2019,08,15,00,06,17.10
2019,08,15,00,07,17.10
2019,08,15,00,08,17.10
2019,08,15,00,09,17.10
2019,08,15,00,10,17.10
2019,08,15,00,11,17.10
2019,08,15,00,12,17.10
2019,08,15,00,13,17.10
2019,08,15,00,14,17.10
2019,08,15,00,15,17.10
2019,08,15,00,16,17.00
2019,08,15,00,17,17.00
2019,08,15,00,18,17.00
2019,08,15,00,19,17.00
2019,08,15,00,20,17.00
2019,08,15,00,21,17.00
2019,08,15,00,22,16.90
2019,08,15,00,23,16.90
2019,08,15,00,24,16.90
2019,08,15,00,25,16.90
2019,08,15,00,26,16.90
2019,08,15,00,27,16.90
2019,08,15,00,28,16.80
2019,08,15,00,29,16.80
2019,08,15,00,30,16.80
2019,08,15,00,31,16.80
2019,08,15,00,32,16.80
2019,08,15,00,33,16.80
2019,08,15,00,34,16.80
2019,08,15,00,35,16.80
2019,08,15,00,36,16.80
2019,08,15,00,37,16.80
2019,08,15,00,38,16.70
2019,08,15,00,39,16.70
2019,08,15,00,40,16.70
2019,08,15,00,41,16.70
2019,08,15,00,42,16.70
2019,08,15,00,43,16.70
2019,08,15,00,44,16.70
2019,08,15,00,45,16.70
2019,08,15,00,46,16.70
2019,08,15,00,47,16.60
2019,08,15,00,48,16.60
2019,08,15,00,49,16.60
2019,08,15,00,50,16.60
2019,08,15,00,51,16.60
2019,08,15,00,52,16.60
2019,08,15,00,53,16.60
2019,08,15,00,54,16.60
2019,08,15,00,55,16.60
2019,08,15,00,56,16.60
2019,08,15,00,57,16.50
2019,08,15,00,58,16.50
2019,08,15,00,59,16.50
2019,08,15,01,00,16.40
2019,08,15,01,01,16.40
2019,08,15,01,02,16.40
2019,08,15,01,03,16.40
2019,08,15,01,04,16.40
2019,08,15,01,05,16.40
2019,08,15,01,06,16.40
2019,08,15,01,07,16.30
2019,08,15,01,08,16.30
2019,08,15,01,09,16.30
2019,08,15,01,10,16.30
2019,08,15,01,11,16.30
2019,08,15,01,12,16.30
2019,08,15,01,13,16.30
2019,08,15,01,14,16.30
2019,08,15,01,15,16.30
2019,08,15,01,16,16.30
2019,08,15,01,17,16.30
2019,08,15,01,18,16.30
2019,08,15,01,19,16.30
2019,08,15,01,20,16.30
2019,08,15,01,21,16.20
2019,08,15,01,22,16.20
2019,08,15,01,23,16.20
2019,08,15,01,24,16.20
2019,08,15,01,25,16.10
2019,08,15,01,26,16.10
2019,08,15,01,27,16.10
2019,08,15,01,28,16.10
2019,08,15,01,29,16.00
2019,08,15,01,30,16.00
2019,08,15,01,31,16.00
2019,08,15,01,32,15.90
2019,08,15,01,33,15.90
2019,08,15,01,34,15.90
2019,08,15,01,35,15.90
2019,08,15,01,36,15.80
2019,08,15,01,37,15.80
2019,08,15,01,38,15.80
2019,08,15,01,39,15.80
2019,08,15,01,40,15.80
2019,08,15,01,41,15.80
2019,08,15,01,42,15.70
2019,08,15,01,43,15.70
2019,08,15,01,44,15.70
2019,08,15,01,45,15.70
2019,08,15,01,46,15.70
2019,08,15,01,47,15.70
2019,08,15,01,48,15.70
2019,08,15,01,49,15.70
2019,08,15,01,50,15.60
2019,08,15,01,51,15.60
2019,08,15,01,52,15.60
2019,08,15,01,53,15.60
2019,08,15,01,54,15.50
2019,08,15,01,55,15.50
2019,08,15,01,56,15.50
2019,08,15,01,57,15.50
2019,08,15,01,58,15.40
2019,08,15,01,59,15.40
2019,08,15,02,00,15.40
2019,08,15,02,01,15.40
2019,08,15,02,02,15.40
2019,08,15,02,03,15.40
2019,08,15,02,04,15.40
2019,08,15,02,05,15.40
2019,08,15,02,06,15.30
2019,08,15,02,07,15.30
2019,08,15,02,08,15.30
2019,08,15,02,09,15.40
2019,08,15,02,10,15.40
2019,08,15,02,11,15.40
2019,08,15,02,12,15.40
2019,08,15,02,13,15.40
2019,08,15,02,14,15.40
2019,08,15,02,15,15.40
2019,08,15,02,16,15.40
2019,08,15,02,17,15.40
2019,08,15,02,18,15.40
2019,08,15,02,19,15.40
2019,08,15,02,20,15.40
2019,08,15,02,21,15.40
2019,08,15,02,22,15.40
2019,08,15,02,23,15.40
2019,08,15,02,24,15.40
2019,08,15,02,25,15.40
2019,08,15,02,26,15.40
2019,08,15,02,27,15.40
2019,08,15,02,28,15.40
2019,08,15,02,29,15.40
2019,08,15,02,30,15.30
2019,08,15,02,31,15.30
2019,08,15,02,32,15.40
2019,08,15,02,33,15.40
2019,08,15,02,34,15.40
2019,08,15,02,35,15.40
2019,08,15,02,36,15.40
2019,08,15,02,37,15.40
2019,08,15,02,38,15.40
2019,08,15,02,39,15.30
2019,08,15,02,40,15.30
2019,08,15,02,41,15.30
2019,08,15,02,42,15.30
2019,08,15,02,43,15.30
2019,08,15,02,44,15.30
2019,08,15,02,45,15.30
2019,08,15,02,46,15.30
2019,08,15,02,47,15.30
2019,08,15,02,48,15.30
2019,08,15,02,49,15.20
2019,08,15,02,50,15.20
2019,08,15,02,51,15.20
2019,08,15,02,52,15.20
2019,08,15,02,53,15.20
2019,08,15,02,54,15.20
2019,08,15,02,55,15.20
2019,08,15,02,56,15.20
2019,08,15,02,57,15.20
2019,08,15,02,58,15.10
2019,08,15,02,59,15.10
2019,08,15,03,00,15.10
2019,08,15,03,01,15.10
2019,08,15,03,02,15.10
2019,08,15,03,03,15.10
2019,08,15,03,04,15.10
2019,08,15,03,05,15.00
2019,08,15,03,06,15.00
2019,08,15,03,07,14.90
2019,08,15,03,08,14.90
2019,08,15,03,09,14.90
2019,08,15,03,10,14.90
2019,08,15,03,11,14.90
2019,08,15,03,12,14.90
2019,08,15,03,13,14.90
2019,08,15,03,14,14.90
2019,08,15,03,15,14.90
2019,08,15,03,16,14.90
2019,08,15,03,17,14.90
2019,08,15,03,18,14.90
2019,08,15,03,19,14.90
2019,08,15,03,20,14.90
2019,08,15,03,21,14.90
2019,08,15,03,22,14.90
2019,08,15,03,23,14.90
2019,08,15,03,24,14.90
2019,08,15,03,25,15.00
2019,08,15,03,26,15.00
2019,08,15,03,27,15.00
2019,08,15,03,28,15.00
2019,08,15,03,29,14.90
2019,08,15,03,30,14.90
2019,08,15,03,31,14.90
2019,08,15,03,32,14.90
2019,08,15,03,33,14.90
2019,08,15,03,34,14.90
2019,08,15,03,35,14.90
2019,08,15,03,36,14.90
2019,08,15,03,37,14.90
2019,08,15,03,38,14.90
2019,08,15,03,39,14.90
2019,08,15,03,40,14.90
2019,08,15,03,41,14.90
2019,08,15,03,42,14.90
2019,08,15,03,43,14.80
2019,08,15,03,44,14.90
2019,08,15,03,45,14.90
2019,08,15,03,46,14.90
2019,08,15,03,47,14.90
2019,08,15,03,48,14.90
2019,08,15,03,49,14.90
2019,08,15,03,50,14.90
2019,08,15,03,51,14.90
2019,08,15,03,52,14.90
2019,08,15,03,53,14.90
2019,08,15,03,54,14.90
2019,08,15,03,55,14.90
2019,08,15,03,56,14.90
2019,08,15,03,57,14.90
2019,08,15,03,58,14.90
2019,08,15,03,59,14.90
2019,08,15,04,00,14.90
2019,08,15,04,01,14.90
2019,08,15,04,02,14.90
2019,08,15,04,03,14.90
2019,08,15,04,04,14.90
2019,08,15,04,08,14.90
2019,08,15,04,09,14.90
2019,08,15,04,10,14.90
2019,08,15,04,11,14.90
2019,08,15,04,12,14.90
2019,08,15,04,13,14.90
2019,08,15,04,14,14.90
2019,08,15,04,15,14.90
2019,08,15,04,16,14.90
2019,08,15,04,17,14.90
2019,08,15,04,18,14.90
2019,08,15,04,19,14.90
2019,08,15,04,20,14.90
2019,08,15,04,21,15.00
2019,08,15,04,22,15.00
2019,08,15,04,23,15.10
2019,08,15,04,24,15.10
2019,08,15,04,25,15.10
2019,08,15,04,26,15.20
2019,08,15,04,27,15.20
2019,08,15,04,28,15.20
2019,08,15,04,29,15.20
2019,08,15,04,30,15.20
2019,08,15,04,31,15.20
2019,08,15,04,32,15.10
2019,08,15,04,33,15.10
2019,08,15,04,34,15.10
2019,08,15,04,35,15.10
2019,08,15,04,36,15.10
2019,08,15,04,37,15.10
2019,08,15,04,38,15.10
2019,08,15,04,39,15.10
2019,08,15,04,40,15.10
2019,08,15,04,41,15.10
2019,08,15,04,42,15.10
2019,08,15,04,43,15.10
2019,08,15,04,44,15.10
2019,08,15,04,45,15.10
2019,08,15,04,46,15.10
2019,08,15,04,47,15.00
2019,08,15,04,48,14.90
2019,08,15,04,49,14.90
2019,08,15,04,50,14.80
2019,08,15,04,51,14.80
2019,08,15,04,52,14.80
2019,08,15,04,53,14.80
2019,08,15,04,54,14.70
2019,08,15,04,55,14.70
2019,08,15,04,56,14.70
2019,08,15,04,57,14.60
2019,08,15,04,58,14.60
2019,08,15,04,59,14.50
2019,08,15,05,00,14.50
2019,08,15,05,01,14.50
2019,08,15,05,02,14.60
2019,08,15,05,03,14.60
2019,08,15,05,04,14.60
2019,08,15,05,05,14.60
2019,08,15,05,06,14.60
2019,08,15,05,07,14.60
2019,08,15,05,08,14.60
2019,08,15,05,09,14.60
2019,08,15,05,10,14.60
2019,08,15,05,11,14.60
2019,08,15,05,12,14.60
2019,08,15,05,13,14.60
2019,08,15,05,14,14.60
2019,08,15,05,15,14.60
2019,08,15,05,16,14.50
2019,08,15,05,17,14.50
2019,08,15,05,18,14.50
2019,08,15,05,19,14.50
2019,08,15,05,20,14.50
2019,08,15,05,21,14.50
2019,08,15,05,22,14.50
2019,08,15,05,23,14.50
2019,08,15,05,24,14.50
2019,08,15,05,25,14.50
2019,08,15,05,26,14.50
2019,08,15,05,27,14.60
2019,08,15,05,28,14.60
2019,08,15,05,29,14.60
2019,08,15,05,30,14.60
2019,08,15,05,31,14.70
2019,08,15,05,32,14.60
2019,08,15,05,33,14.60
2019,08,15,05,34,14.60
2019,08,15,05,35,14.60
2019,08,15,05,36,14.60
2019,08,15,05,37,14.50
2019,08,15,05,38,14.50
2019,08,15,05,39,14.50
2019,08,15,05,40,14.40
2019,08,15,05,41,14.40
2019,08,15,05,42,14.40
2019,08,15,05,43,14.40
2019,08,15,05,44,14.30
2019,08,15,05,45,14.30
2019,08,15,05,46,14.30
2019,08,15,05,47,14.30
2019,08,15,05,48,14.30
2019,08,15,05,49,14.30
2019,08,15,05,50,14.30
2019,08,15,05,51,14.30
2019,08,15,05,52,14.30
2019,08,15,05,53,14.30
2019,08,15,05,54,14.30
2019,08,15,05,55,14.30
2019,08,15,05,56,14.30
2019,08,15,05,57,14.30
2019,08,15,05,58,14.30
2019,08,15,05,59,14.30
2019,08,15,06,00,14.30
2019,08,15,06,01,14.30
2019,08,15,06,02,14.30
2019,08,15,06,03,14.40
2019,08,15,06,04,14.40
2019,08,15,06,05,14.40
2019,08,15,06,06,14.40
2019,08,15,06,07,14.40
2019,08,15,06,08,14.40
2019,08,15,06,09,14.40
2019,08,15,06,10,14.40
2019,08,15,06,11,14.40
2019,08,15,06,12,14.40
2019,08,15,06,13,14.40
2019,08,15,06,14,14.40
2019,08,15,06,15,14.50
2019,08,15,06,16,14.50
2019,08,15,06,17,14.50
2019,08,15,06,18,14.50
2019,08,15,06,19,14.50
2019,08,15,06,20,14.50
2019,08,15,06,21,14.50
2019,08,15,06,22,14.50
2019,08,15,06,23,14.50
2019,08,15,06,24,14.50
2019,08,15,06,25,14.40
2019,08,15,06,26,14.40
2019,08,15,06,27,14.40
2019,08,15,06,28,14.40
2019,08,15,06,29,14.40
2019,08,15,06,30,14.50
2019,08,15,06,31,14.50
2019,08,15,06,32,14.50
2019,08,15,06,33,14.50
2019,08,15,06,34,14.50
2019,08,15,06,35,14.50
2019,08,15,06,36,14.50
2019,08,15,06,37,14.50
2019,08,15,06,38,14.50
2019,08,15,06,39,14.50
2019,08,15,06,40,14.60
2019,08,15,06,41,14.60
2019,08,15,06,42,14.60
2019,08,15,06,43,14.50
2019,08,15,06,44,14.50
2019,08,15,06,45,14.50
2019,08,15,06,46,14.50
2019,08,15,06,47,14.50
2019,08,15,06,48,14.50
2019,08,15,06,49,14.50
2019,08,15,06,50,14.50
2019,08,15,06,51,14.60
2019,08,15,06,52,14.60
2019,08,15,06,53,14.60
2019,08,15,06,54,14.60
2019,08,15,06,55,14.60
2019,08,15,06,56,14.60
2019,08,15,06,57,14.60
2019,08,15,06,58,14.70
2019,08,15,06,59,14.70
2019,08,15,07,00,14.70
2019,08,15,07,01,14.70
2019,08,15,07,02,14.80
2019,08,15,07,03,14.80
2019,08,15,07,04,14.80
2019,08,15,07,05,14.80
2019,08,15,07,06,14.90
2019,08,15,07,07,14.90
2019,08,15,07,08,15.00
2019,08,15,07,09,15.00
2019,08,15,07,10,15.10
2019,08,15,07,11,15.10
2019,08,15,07,12,15.20
2019,08,15,07,13,15.20
2019,08,15,07,14,15.20
2019,08,15,07,15,15.30
2019,08,15,07,16,15.30
2019,08,15,07,17,15.30
2019,08,15,07,18,15.40
2019,08,15,07,19,15.40
2019,08,15,07,20,15.40
2019,08,15,07,21,15.50
2019,08,15,07,22,15.60
2019,08,15,07,23,15.60
2019,08,15,07,24,15.70
2019,08,15,07,25,15.70
2019,08,15,07,26,15.80
2019,08,15,07,27,15.90
2019,08,15,07,28,16.00
2019,08,15,07,29,16.10
2019,08,15,07,30,16.20
2019,08,15,07,31,16.30
2019,08,15,07,32,16.40
2019,08,15,07,33,16.50
2019,08,15,07,34,16.60
2019,08,15,07,35,16.70
2019,08,15,07,36,16.80
2019,08,15,07,37,16.90
2019,08,15,07,38,17.00
2019,08,15,07,39,17.10
2019,08,15,07,40,17.20
2019,08,15,07,41,17.30
2019,08,15,07,42,17.30
2019,08,15,07,43,17.40
2019,08,15,07,44,17.50
2019,08,15,07,45,17.60
2019,08,15,07,46,17.70
2019,08,15,07,47,17.80
2019,08,15,07,48,17.80
2019,08,15,07,49,17.90
2019,08,15,07,50,17.90
2019,08,15,07,51,18.00
2019,08,15,07,52,18.00
2019,08,15,07,53,18.10
2019,08,15,07,54,18.10
2019,08,15,07,55,18.20
2019,08,15,07,56,18.20
2019,08,15,07,57,18.30
2019,08,15,07,58,18.30
2019,08,15,07,59,18.40
2019,08,15,08,00,18.50
2019,08,15,08,01,18.50
2019,08,15,08,02,18.60
2019,08,15,08,03,18.70
2019,08,15,08,04,18.80
2019,08,15,08,05,18.80
2019,08,15,08,06,18.90
2019,08,15,08,07,19.00
2019,08,15,08,08,19.10
2019,08,15,08,09,19.10
2019,08,15,08,10,19.20
2019,08,15,08,11,19.30
2019,08,15,08,12,19.40
2019,08,15,08,13,19.60
2019,08,15,08,14,19.70
2019,08,15,08,15,19.80
2019,08,15,08,16,19.80
2019,08,15,08,17,19.90
2019,08,15,08,18,19.90
2019,08,15,08,19,20.00
2019,08,15,08,20,20.00
2019,08,15,08,21,20.00
2019,08,15,08,22,20.10
2019,08,15,08,23,20.10
2019,08,15,08,24,20.10
2019,08,15,08,25,20.10
2019,08,15,08,26,20.10
2019,08,15,08,27,20.20
2019,08,15,08,28,20.20
2019,08,15,08,29,20.30
2019,08,15,08,30,20.40
2019,08,15,08,31,20.50
2019,08,15,08,32,20.50
2019,08,15,08,33,20.60
2019,08,15,08,34,20.70
2019,08,15,08,35,20.70
2019,08,15,08,36,20.80
2019,08,15,08,37,20.90
2019,08,15,08,38,20.90
2019,08,15,08,39,21.00
2019,08,15,08,40,21.00
2019,08,15,08,41,21.10
2019,08,15,08,42,21.10
2019,08,15,08,43,21.10
2019,08,15,08,44,21.10
2019,08,15,08,45,21.10
2019,08,15,08,46,21.00
2019,08,15,08,47,21.00
2019,08,15,08,48,20.90
2019,08,15,08,49,20.90
2019,08,15,08,50,20.90
2019,08,15,08,51,21.00
2019,08,15,08,52,21.00
2019,08,15,08,53,21.00
2019,08,15,08,54,21.00
2019,08,15,08,55,21.00
2019,08,15,08,56,20.90
2019,08,15,08,57,20.90
2019,08,15,08,58,20.80
2019,08,15,08,59,20.80
2019,08,15,09,00,20.80
2019,08,15,09,01,20.80
2019,08,15,09,02,20.80
2019,08,15,09,03,20.70
2019,08,15,09,04,20.70
2019,08,15,09,05,20.70
2019,08,15,09,06,20.70
2019,08,15,09,07,20.70
2019,08,15,09,08,20.70
2019,08,15,09,09,20.70
2019,08,15,09,10,20.70
2019,08,15,09,11,20.80
2019,08,15,09,12,20.80
2019,08,15,09,13,20.90
2019,08,15,09,14,21.00
2019,08,15,09,15,21.00
2019,08,15,09,16,21.10
2019,08,15,09,17,21.10
2019,08,15,09,18,21.10
2019,08,15,09,19,21.10
2019,08,15,09,20,21.00
2019,08,15,09,21,20.90
2019,08,15,09,22,20.80
2019,08,15,09,23,20.70
2019,08,15,09,24,20.60
2019,08,15,09,25,20.50
2019,08,15,09,26,20.30
2019,08,15,09,27,20.30
2019,08,15,09,28,20.20
2019,08,15,09,29,20.20
2019,08,15,09,30,20.10
2019,08,15,09,31,20.10
2019,08,15,09,32,20.10
2019,08,15,09,33,20.00
2019,08,15,09,34,20.00
2019,08,15,09,35,19.90
2019,08,15,09,36,19.90
2019,08,15,09,37,19.80
2019,08,15,09,38,19.80
2019,08,15,09,39,19.80
2019,08,15,09,40,19.80
2019,08,15,09,41,19.70
2019,08,15,09,42,19.70
2019,08,15,09,43,19.70
2019,08,15,09,44,19.70
2019,08,15,09,45,19.70
2019,08,15,09,46,19.70
2019,08,15,09,47,19.60
2019,08,15,09,48,19.60
2019,08,15,09,49,19.60
2019,08,15,09,50,19.60
2019,08,15,09,51,19.60
2019,08,15,09,52,19.60
2019,08,15,09,53,19.60
2019,08,15,09,54,19.60
2019,08,15,09,55,19.60
2019,08,15,09,56,19.60
2019,08,15,09,57,19.60
2019,08,15,09,58,19.70
2019,08,15,09,59,19.70
2019,08,15,10,00,19.70
2019,08,15,10,01,19.70
2019,08,15,10,02,19.70
2019,08,15,10,03,19.70
2019,08,15,10,04,19.70
2019,08,15,10,05,19.70
2019,08,15,10,06,19.70
2019,08,15,10,07,19.60
2019,08,15,10,08,19.70
2019,08,15,10,09,19.70
2019,08,15,10,10,19.70
2019,08,15,10,11,19.70
2019,08,15,10,12,19.70
2019,08,15,10,13,19.60
2019,08,15,10,14,19.60
2019,08,15,10,15,19.60
2019,08,15,10,16,19.50
2019,08,15,10,17,19.50
2019,08,15,10,18,19.40
2019,08,15,10,19,19.40
2019,08,15,10,20,19.40
2019,08,15,10,21,19.40
2019,08,15,10,22,19.40
2019,08,15,10,23,19.50
2019,08,15,10,24,19.50
2019,08,15,10,25,19.50
2019,08,15,10,26,19.50
2019,08,15,10,27,19.50
2019,08,15,10,28,19.50
2019,08,15,10,29,19.50
2019,08,15,10,30,19.50
2019,08,15,10,31,19.50
2019,08,15,10,32,19.60
2019,08,15,10,33,19.60
2019,08,15,10,34,19.60
2019,08,15,10,35,19.60
2019,08,15,10,36,19.70
2019,08,15,10,37,19.70
2019,08,15,10,38,19.70
2019,08,15,10,39,19.80
2019,08,15,10,40,19.90
2019,08,15,10,41,19.90
2019,08,15,10,42,20.00
2019,08,15,10,43,20.10
2019,08,15,10,44,20.20
2019,08,15,10,45,20.30
2019,08,15,10,46,20.40
2019,08,15,10,47,20.50
2019,08,15,10,48,20.50
2019,08,15,10,49,20.60
2019,08,15,10,50,20.70
2019,08,15,10,51,20.80
2019,08,15,10,52,20.80
2019,08,15,10,53,20.80
2019,08,15,10,54,20.80
2019,08,15,10,55,20.80
2019,08,15,10,56,20.80
2019,08,15,10,57,20.80
2019,08,15,10,58,20.80
2019,08,15,10,59,20.80
2019,08,15,11,00,20.80
2019,08,15,11,01,20.90
2019,08,15,11,02,20.90
2019,08,15,11,03,21.00
2019,08,15,11,04,21.00
2019,08,15,11,05,21.00
2019,08,15,11,06,21.10
2019,08,15,11,07,21.10
2019,08,15,11,08,21.10
2019,08,15,11,09,21.00
2019,08,15,11,10,20.90
2019,08,15,11,11,20.80
2019,08,15,11,12,20.70
2019,08,15,11,13,20.60
2019,08,15,11,14,20.60
2019,08,15,11,15,20.50
2019,08,15,11,16,20.50
2019,08,15,11,17,20.50
2019,08,15,11,18,20.50
2019,08,15,11,19,20.60
2019,08,15,11,20,20.60
2019,08,15,11,21,20.60
2019,08,15,11,22,20.60
2019,08,15,11,23,20.60
2019,08,15,11,24,20.60
2019,08,15,11,25,20.60
2019,08,15,11,26,20.70
2019,08,15,11,27,20.70
2019,08,15,11,28,20.70
2019,08,15,11,29,20.70
2019,08,15,11,30,20.70
2019,08,15,11,31,20.70
2019,08,15,11,32,20.70
2019,08,15,11,33,20.60
2019,08,15,11,34,20.60
2019,08,15,11,35,20.50
2019,08,15,11,36,20.50
2019,08,15,11,37,20.40
2019,08,15,11,38,20.40
2019,08,15,11,39,20.40
2019,08,15,11,40,20.30
2019,08,15,11,41,20.30
2019,08,15,11,42,20.30
2019,08,15,11,43,20.30
2019,08,15,11,44,20.20
2019,08,15,11,45,20.20
2019,08,15,11,46,20.20
2019,08,15,11,47,20.20
2019,08,15,11,48,20.20
2019,08,15,11,49,20.20
2019,08,15,11,50,20.20
2019,08,15,11,51,20.20
2019,08,15,11,52,20.30
2019,08,15,11,53,20.30
2019,08,15,11,54,20.30
2019,08,15,11,55,20.30
2019,08,15,11,56,20.30
2019,08,15,11,57,20.30
2019,08,15,11,58,20.30
2019,08,15,11,59,20.30
2019,08,15,12,00,20.30
2019,08,15,12,01,20.40
2019,08,15,12,02,20.40
2019,08,15,12,03,20.40
2019,08,15,12,04,20.40
2019,08,15,12,05,20.40
2019,08,15,12,06,20.40
2019,08,15,12,07,20.50
2019,08,15,12,08,20.50
2019,08,15,12,09,20.60
2019,08,15,12,10,20.60
2019,08,15,12,11,20.60
2019,08,15,12,12,20.60
2019,08,15,12,13,20.60
2019,08,15,12,14,20.60
2019,08,15,12,15,20.60
2019,08,15,12,16,20.60
2019,08,15,12,17,20.60
2019,08,15,12,18,20.70
2019,08,15,12,19,20.60
2019,08,15,12,20,20.60
2019,08,15,12,21,20.60
2019,08,15,12,22,20.60
2019,08,15,12,23,20.60
2019,08,15,12,24,20.60
2019,08,15,12,25,20.70
2019,08,15,12,26,20.70
2019,08,15,12,27,20.70
2019,08,15,12,28,20.70
2019,08,15,12,29,20.60
2019,08,15,12,30,20.50
2019,08,15,12,31,20.50
2019,08,15,12,32,20.40
2019,08,15,12,33,20.40
2019,08,15,12,34,20.50
2019,08,15,12,35,20.50
2019,08,15,12,36,20.50
2019,08,15,12,37,20.60
2019,08,15,12,38,20.60
2019,08,15,12,39,20.70
2019,08,15,12,40,20.70
2019,08,15,12,41,20.70
2019,08,15,12,42,20.80
2019,08,15,12,43,20.80
2019,08,15,12,44,20.90
2019,08,15,12,45,21.00
2019,08,15,12,46,21.00
2019,08,15,12,47,21.00
2019,08,15,12,48,21.00
2019,08,15,12,49,20.90
2019,08,15,12,50,20.90
2019,08,15,12,51,20.80
2019,08,15,12,52,20.80
2019,08,15,12,53,20.80
2019,08,15,12,54,20.70
2019,08,15,12,55,20.80
2019,08,15,12,56,20.80
2019,08,15,12,57,20.80
2019,08,15,12,58,20.80
2019,08,15,12,59,20.80
2019,08,15,13,00,20.80
2019,08,15,13,01,20.90
2019,08,15,13,02,21.00
2019,08,15,13,03,21.00
2019,08,15,13,04,21.10
2019,08,15,13,05,21.20
2019,08,15,13,06,21.20
2019,08,15,13,07,21.30
2019,08,15,13,08,21.30
2019,08,15,13,09,21.30
2019,08,15,13,10,21.30
2019,08,15,13,11,21.30
2019,08,15,13,12,21.30
2019,08,15,13,13,21.40
2019,08,15,13,14,21.40
2019,08,15,13,15,21.50
2019,08,15,13,16,21.50
2019,08,15,13,17,21.50
2019,08,15,13,18,21.40
2019,08,15,13,19,21.30
2019,08,15,13,20,21.20
2019,08,15,13,21,21.10
2019,08,15,13,22,21.10
2019,08,15,13,23,21.10
2019,08,15,13,24,21.10
2019,08,15,13,25,21.20
2019,08,15,13,26,21.20
2019,08,15,13,27,21.10
2019,08,15,13,28,21.20
2019,08,15,13,29,21.20
2019,08,15,13,30,21.20
2019,08,15,13,31,21.30
2019,08,15,13,32,21.30
2019,08,15,13,33,21.40
2019,08,15,13,34,21.50
2019,08,15,13,35,21.50
2019,08,15,13,36,21.60
2019,08,15,13,37,21.70
2019,08,15,13,38,21.80
2019,08,15,13,39,22.00
2019,08,15,13,40,22.10
2019,08,15,13,41,22.30
2019,08,15,13,42,22.40
2019,08,15,13,43,22.50
2019,08,15,13,44,22.70
2019,08,15,13,45,22.80
2019,08,15,13,46,23.00
2019,08,15,13,47,23.20
2019,08,15,13,48,23.30
2019,08,15,13,49,23.50
2019,08,15,13,50,23.50
2019,08,15,13,51,23.40
2019,08,15,13,52,23.30
2019,08,15,13,53,23.20
2019,08,15,13,54,23.00
2019,08,15,13,55,22.80
2019,08,15,13,56,22.60
2019,08,15,13,57,22.50
2019,08,15,13,58,22.40
2019,08,15,13,59,22.30
2019,08,15,14,00,22.30
2019,08,15,14,01,22.30
2019,08,15,14,02,22.30
2019,08,15,14,03,22.30
2019,08,15,14,04,22.30
2019,08,15,14,05,22.20
2019,08,15,14,06,22.20
2019,08,15,14,07,22.20
2019,08,15,14,08,22.30
2019,08,15,14,09,22.40
2019,08,15,14,10,22.50
2019,08,15,14,11,22.70
2019,08,15,14,12,22.80
2019,08,15,14,13,23.00
2019,08,15,14,14,23.10
2019,08,15,14,15,23.30
2019,08,15,14,16,23.40
2019,08,15,14,17,23.50
2019,08,15,14,18,23.50
2019,08,15,14,19,23.60
2019,08,15,14,20,23.70
2019,08,15,14,21,23.80
2019,08,15,14,22,23.90
2019,08,15,14,23,23.90
2019,08,15,14,24,24.00
2019,08,15,14,25,24.10
2019,08,15,14,26,24.20
2019,08,15,14,27,24.20
2019,08,15,14,28,24.20
2019,08,15,14,29,24.20
2019,08,15,14,30,24.20
2019,08,15,14,31,24.20
2019,08,15,14,32,24.30
2019,08,15,14,33,24.30
2019,08,15,14,34,24.40
2019,08,15,14,35,24.40
2019,08,15,14,36,24.50
2019,08,15,14,37,24.50
2019,08,15,14,38,24.50
2019,08,15,14,39,24.50
2019,08,15,14,40,24.60
2019,08,15,14,41,24.60
2019,08,15,14,42,24.50
2019,08,15,14,43,24.50
2019,08,15,14,44,24.50
2019,08,15,14,45,24.50
2019,08,15,14,46,24.50
2019,08,15,14,47,24.50
2019,08,15,14,48,24.60
2019,08,15,14,49,24.60
2019,08,15,14,50,24.60
2019,08,15,14,51,24.60
2019,08,15,14,52,24.70
2019,08,15,14,53,24.70
2019,08,15,14,54,24.70
2019,08,15,14,55,24.80
2019,08,15,14,56,24.80
2019,08,15,14,57,24.80
2019,08,15,14,58,24.80
2019,08,15,14,59,24.70
2019,08,15,15,00,24.70
2019,08,15,15,01,24.60
2019,08,15,15,02,24.60
2019,08,15,15,03,24.60
2019,08,15,15,04,24.60
2019,08,15,15,05,24.60
2019,08,15,15,06,24.50
2019,08,15,15,07,24.40
2019,08,15,15,08,24.40
2019,08,15,15,09,24.40
2019,08,15,15,10,24.40
2019,08,15,15,11,24.50
2019,08,15,15,12,24.50
2019,08,15,15,13,24.50
2019,08,15,15,14,24.50
2019,08,15,15,15,24.60
2019,08,15,15,16,24.60
2019,08,15,15,17,24.50
2019,08,15,15,18,24.50
2019,08,15,15,19,24.40
2019,08,15,15,20,24.40
2019,08,15,15,21,24.40
2019,08,15,15,22,24.40
2019,08,15,15,23,24.40
2019,08,15,15,24,24.30
2019,08,15,15,25,24.30
2019,08,15,15,26,24.30
2019,08,15,15,27,24.30
2019,08,15,15,28,24.30
2019,08,15,15,29,24.30
2019,08,15,15,30,24.30
2019,08,15,15,31,24.30
2019,08,15,15,32,24.30
2019,08,15,15,33,24.20
2019,08,15,15,34,24.20
2019,08,15,15,35,24.10
2019,08,15,15,36,24.10
2019,08,15,15,37,24.10
2019,08,15,15,38,24.10
2019,08,15,15,39,24.10
2019,08,15,15,40,24.10
2019,08,15,15,41,24.10
2019,08,15,15,42,24.10
2019,08,15,15,43,24.20
2019,08,15,15,44,24.20
2019,08,15,15,45,24.20
2019,08,15,15,46,24.20
2019,08,15,15,47,24.20
2019,08,15,15,48,24.20
2019,08,15,15,49,24.20
2019,08,15,15,50,24.30
2019,08,15,15,51,24.30
2019,08,15,15,52,24.30
2019,08,15,15,53,24.40
2019,08,15,15,54,24.40
2019,08,15,15,55,24.40
2019,08,15,15,56,24.50
2019,08,15,15,57,24.50
2019,08,15,15,58,24.60
2019,08,15,15,59,24.60
2019,08,15,16,00,24.70
2019,08,15,16,01,24.70
2019,08,15,16,02,24.70
2019,08,15,16,03,24.70
2019,08,15,16,04,24.60
2019,08,15,16,05,24.60
2019,08,15,16,06,24.60
2019,08,15,16,07,24.60
2019,08,15,16,08,24.70
2019,08,15,16,09,24.70
2019,08,15,16,10,24.80
2019,08,15,16,11,24.80
2019,08,15,16,12,24.80
2019,08,15,16,13,24.80
2019,08,15,16,14,24.90
2019,08,15,16,15,24.90
2019,08,15,16,16,24.90
2019,08,15,16,17,24.90
2019,08,15,16,18,25.00
2019,08,15,16,19,25.00
2019,08,15,16,20,25.00
2019,08,15,16,21,25.00
2019,08,15,16,22,25.10
2019,08,15,16,23,25.10
2019,08,15,16,24,25.20
2019,08,15,16,25,25.20
2019,08,15,16,26,25.30
2019,08,15,16,27,25.30
2019,08,15,16,28,25.40
2019,08,15,16,29,25.50
2019,08,15,16,30,25.50
2019,08,15,16,31,25.60
2019,08,15,16,32,25.70
2019,08,15,16,33,25.70
2019,08,15,16,34,25.80
2019,08,15,16,35,25.80
2019,08,15,16,36,25.80
2019,08,15,16,37,25.80
2019,08,15,16,38,25.90
2019,08,15,16,39,26.00
2019,08,15,16,40,26.00
2019,08,15,16,41,26.10
2019,08,15,16,42,26.20
2019,08,15,16,43,26.20
2019,08,15,16,44,26.30
2019,08,15,16,45,26.40
2019,08,15,16,46,26.50
2019,08,15,16,47,26.50
2019,08,15,16,48,26.60
2019,08,15,16,49,26.70
2019,08,15,16,50,26.80
2019,08,15,16,51,26.80
2019,08,15,16,52,26.90
2019,08,15,16,53,27.00
2019,08,15,16,54,27.00
2019,08,15,16,55,27.10
2019,08,15,16,56,27.20
2019,08,15,16,57,27.30
2019,08,15,16,58,27.40
2019,08,15,16,59,27.40
2019,08,15,17,00,27.40
2019,08,15,17,01,27.50
2019,08,15,17,02,27.50
2019,08,15,17,03,27.60
2019,08,15,17,04,27.60
2019,08,15,17,05,27.70
2019,08,15,17,06,27.70
2019,08,15,17,07,27.80
2019,08,15,17,08,27.80
2019,08,15,17,09,27.80
2019,08,15,17,10,27.90
2019,08,15,17,11,27.90
2019,08,15,17,12,27.90
2019,08,15,17,13,27.60
2019,08,15,17,14,27.40
2019,08,15,17,15,27.10
2019,08,15,17,16,26.70
2019,08,15,17,17,26.40
2019,08,15,17,18,26.10
2019,08,15,17,19,25.90
2019,08,15,17,20,25.80
2019,08,15,17,21,25.70
2019,08,15,17,22,25.60